This demonstration page uses our WeatherBlox Daily Observations layout. Learn more.

Left ArrowRight Arrow

Hourly Observations for June 17, 2016

Temp ( °F °C ) Dew Point ( °F °C ) Humidity (%) Winds ( mph kmh ) Pressure ( in mb ) Visibility ( mi km ) Precip ( " mm )
12:53 am 00:53 Cloudy 61 16.1 53 11.7 75 75 NNW 3 6 30.01 1016 10 16 0.00 0.00
1:53 am 01:53 Cloudy with Light Rain 61 16.1 53 11.7 75 75 N 5 7 30.01 1016 10 16 0.00 0.03
2:53 am 02:53 Cloudy 58 14.4 54 12.2 87 87 NNW 5 7 30.01 1016 10 16 0.01 0.25
3:53 am 03:53 Cloudy 59 15 54 12.2 83 83 NNE 7 11 29.99 1016 10 16 0.00 0.00
4:53 am 04:53 Cloudy 59 15 53 11.7 81 81 N 5 7 29.99 1016 10 16 0.00 0.00
5:53 am 05:53 Cloudy with Light Rain 59 15 53 11.7 81 81 NNE 5 7 30.00 1016 10 16 0.01 0.25
6:53 am 06:53 Cloudy with Light Rain 58 14.4 54 12.2 87 87 N 5 7 30.01 1016 9 14 0.03 0.76
7:53 am 07:53 Cloudy 59 15 54 12.2 83 83 NNE 6 9 30.02 1017 10 16 0.00 0.03
8:53 am 08:53 Cloudy 60 15.6 55 12.8 84 84 NE 5 7 30.04 1017 10 16 0.00 0.00
9:53 am 09:53 Cloudy 62 16.7 55 12.8 78 78 Calm 30.04 1017 10 16 0.00 0.00
10:53 am 10:53 Cloudy 64 17.8 53 11.7 68 68 Calm 30.05 1018 10 16 0.00 0.00
11:53 am 11:53 Cloudy 64 17.8 54 12.2 70 70 W 5 7 30.06 1018 10 16 0.00 0.00
12:31 pm 12:31 Cloudy 65 18.3 54 12.2 68 68 Calm 30.03 1017 10 16 0.00 0.00
12:41 pm 12:41 Cloudy 66 18.9 54 12.2 65 65 SE 12 19 30.03 1017 10 16 0.00 0.00
12:53 pm 12:53 Cloudy 67 19.4 55 12.8 66 66 SSE 14 22 30.04 1017 10 16 0.00 0.00
1:53 pm 13:53 Cloudy 67 19.4 55 12.8 66 66 SE 10 17 30.05 1018 10 16 0.00 0.00
2:00 pm 14:00 Cloudy 66 19 55 13 68 68 S 7 11 30.03 1017 10 16 0.00 0.00
2:53 pm 14:53 Cloudy 69 20.6 54 12.2 59 59 SSE 7 11 30.03 1017 10 16 0.00 0.00
3:53 pm 15:53 Mostly Cloudy 69 20.6 55 12.8 61 61 SSW 7 11 30.02 1017 10 16 0.00 0.00
4:53 pm 16:53 Cloudy 63 17.2 59 15 87 87 NNW 7 11 30.03 1017 10 16 0.10 2.54
5:53 pm 17:53 Cloudy 63 17.2 59 15 87 87 WNW 6 9 30.01 1016 10 16 0.00 0.03
6:53 pm 18:53 Cloudy with Light Rain 62 16.7 58 14.4 86 86 WNW 6 9 30.02 1017 6 10 0.12 3.05
7:53 pm 19:53 Cloudy with Light Rain 61 16.1 59 15 93 93 NNE 3 6 30.04 1017 6 10 0.07 1.78
8:53 pm 20:53 Cloudy with Rain 60 15.6 58 14.4 93 93 NE 6 9 30.04 1017 7 11 0.11 2.79
9:17 pm 21:17 Cloudy with Light Rain 60 15.6 57 13.9 90 90 NE 3 6 30.03 1017 7 11 0.05 1.27
9:53 pm 21:53 Cloudy with Rain 60 15.6 57 13.9 90 90 Calm 30.06 1018 7 11 0.11 2.79
10:53 pm 22:53 Cloudy with Rain 59 15 56 13.3 90 90 ESE 7 11 30.06 1018 8 13 0.18 4.57
11:53 pm 23:53 Cloudy with Light Rain 58 14.4 55 12.8 90 90 SE 8 13 30.06 1018 8 13 0.14 3.56

Powered by AerisWeather